Погода в Новой Слободе

Россия / Республика Марий Эл     56°05′49″N   46°05′29″E
темп.,
°C
ветер,
м/с
пор.,
м/с
влажн.,
%
обл.,
%
осадки,
мм/ч
давл.,
гПа
погр.,
м
18 апреля, вс
вс1800:00+4всв410780 0.0 1023230
03:00+3св38840 0.0 1024156
06:00+3св38790 0.0 1023200
09:00+9всв58550 0.0 1023757
12:00+13всв56425 0.0 10231585
15:00+13всв674116 0.0 10231842
18:00+9св8127111 0.0 1023682
21:00+5всв6127674 0.0 1025577
19 апреля, пн
пн1900:00+4всв5117284 0.0 1026475
03:00+3всв5106298 0.0 1027565
06:00+1всв61271100 0.0 1027566
09:00+4в71152100 0.0 1028833
12:00+7в81040100 0.0 10281459
15:00+7в71036100 0.0 10281658
18:00+6в61141100 0.0 10281170
21:00+3в614445 0.0 1029577
20 апреля, вт
вт2000:00+2в615485 0.0 1029505
03:000в614555 0.0 1029392
06:00+1в614575 0.0 1029439
09:00+6вюв812441 0.0 10291003
12:00+9вюв811346 0.0 10281375
15:00+9вюв811350 0.0 10271407
18:00+8вюв7124053 0.0 1025858
21:00+5вюв71545100 0.0 1025596
21 апреля, ср
ср2100:00+4вюв81746100 0.0 1023730
03:00+4вюв91848100 0.0 1021752
06:00+2юв101964100 0.9 1019778
09:00+1юв102089100 3.8 1018824
12:00+2юв91992100 3.1 1017839
15:00+4юв91788100 3.6 1016808
18:00+4ююв91790100 0.1 1017732
21:00+4ююв81692100 0.1 1019556
22 апреля, чт
чт2200:00+4ююв61294100 0.1 1019424
03:00+4ююв51096100 0.1 1020353
06:00+4ююв61296100 0.6 1020376
09:00+5ю5119498 0.7 1021487
12:00+11ю696976 0.1 10211290
15:00+10ю3871100 0.3 1021282
18:00+10ю377474 0.1 1023182
21:00+7ююв338495 0.1 102442